Date String (YYYY-MM-DD hh:mm:ss) UTC,Instrument flags,Ambient pressure (hPa),Sample flow (lpm),Bypass flow (lpm),Sample temperature (°C),Ambient temperature (°C),ASC tube jacket temperature (°C),LED temperature (°C),Box temperature (°C),Sample RH (%),Span deviation,Mass concentration (μg/m³),Mass concentration (μg/m³),Mass concentration (μg/m³)
DateTimeUTC,F1_M11,P_M11,Q1_M11,Q2_M11,T1_M11,T2_M11,T3_M11,T4_M11,T5_M11,U1_M11,ZSPAN_M11,X0_M11,X2_M11,X1_M11
2022-05-17 00:00:00,,0821.6,4.99,0.00,29.2,28.1,00.0,38.1,31.2,12.6,0000.0,0009.89,0003.90,0002.80
2022-05-17 00:01:00,,0821.5,4.99,0.00,29.2,28.3,00.0,38.1,31.2,12.8,0000.0,0010.09,0003.92,0002.81
2022-05-17 00:02:00,,0821.5,5.00,0.00,29.3,28.4,00.0,38.1,31.3,12.6,0000.0,0009.83,0003.88,0002.81
2022-05-17 00:03:00,,0821.4,5.01,0.00,29.3,27.0,00.0,38.1,31.1,12.4,0000.0,0009.39,0003.87,0002.81
2022-05-17 00:04:00,,0821.4,5.00,0.00,29.2,24.9,00.0,38.1,30.6,12.7,0000.0,0010.23,0003.91,0002.82
2022-05-17 00:05:00,,0821.4,5.00,0.00,29.1,24.9,00.0,38.1,30.5,12.6,0000.0,0010.74,0003.92,0002.83
2022-05-17 00:06:00,,0821.4,5.00,0.00,29.0,25.4,00.0,38.0,30.5,12.5,0000.0,0011.24,0003.91,0002.82
2022-05-17 00:07:00,,0821.4,4.99,0.00,28.9,25.8,00.0,38.0,30.5,12.8,0000.0,0011.51,0003.95,0002.81
2022-05-17 00:08:00,,0821.4,5.00,0.00,28.9,26.3,00.0,38.0,30.6,12.9,0000.0,0012.04,0004.00,0002.83
2022-05-17 00:09:00,,0821.4,4.99,0.00,29.0,26.7,00.0,38.0,30.7,12.9,0000.0,0011.88,0003.98,0002.82
2022-05-17 00:10:00,,0821.4,4.99,0.00,29.0,27.1,00.0,38.0,30.8,12.8,0000.0,0011.45,0003.94,0002.81
2022-05-17 00:11:00,,0821.4,4.98,0.00,29.0,27.4,00.0,38.0,30.9,12.8,0000.0,0011.05,0003.97,0002.82
2022-05-17 00:12:00,,0821.4,5.01,0.00,29.1,27.6,00.0,38.0,31.0,13.8,0000.0,0011.00,0004.05,0002.82
2022-05-17 00:13:00,,0821.3,5.00,0.00,29.1,27.8,00.0,38.0,31.0,13.3,0000.0,0010.92,0004.04,0002.82
2022-05-17 00:14:00,,0821.4,5.00,0.00,29.2,28.0,00.0,38.0,31.1,12.9,0000.0,0010.92,0004.03,0002.82
2022-05-17 00:15:00,,0821.4,5.01,0.00,29.2,28.2,00.0,38.1,31.2,13.0,0000.0,0010.37,0004.04,0002.81
2022-05-17 00:16:00,,0821.4,4.99,0.00,29.3,28.3,00.0,38.1,31.2,13.0,0000.0,0010.22,0004.04,0002.80
2022-05-17 00:17:00,,0821.4,5.01,0.00,29.3,28.4,00.0,38.1,31.2,13.2,0000.0,0010.63,0004.05,0002.80
2022-05-17 00:18:00,,0821.3,5.00,0.00,29.3,26.9,00.0,38.1,31.0,13.1,0000.0,0010.76,0004.11,0002.80
2022-05-17 00:19:00,,0821.3,4.99,0.00,29.1,24.9,00.0,38.1,30.6,13.3,0000.0,0011.38,0004.26,0002.81
2022-05-17 00:20:00,,0821.3,5.00,0.00,29.0,24.9,00.0,38.1,30.5,13.3,0000.0,0012.08,0004.28,0002.80
2022-05-17 00:21:00,,0821.3,5.01,0.00,29.0,25.4,00.0,38.0,30.5,13.3,0000.0,0012.40,0004.32,0002.76
2022-05-17 00:22:00,,0821.4,4.99,0.00,28.9,25.9,00.0,38.0,30.5,13.4,0000.0,0012.46,0004.33,0002.72
2022-05-17 00:23:00,,0821.3,5.01,0.00,28.9,26.3,00.0,38.0,30.7,13.3,0000.0,0012.41,0004.24,0002.70
2022-05-17 00:24:00,,0821.4,5.01,0.00,29.0,26.7,00.0,38.0,30.8,13.7,0000.0,0012.92,0004.24,0002.67
2022-05-17 00:25:00,,0821.4,4.99,0.00,29.0,27.1,00.0,38.0,30.8,13.2,0000.0,0012.98,0004.21,0002.65
2022-05-17 00:26:00,,0821.4,4.99,0.00,29.0,27.4,00.0,38.0,30.9,13.5,0000.0,0012.85,0004.17,0002.62
2022-05-17 00:27:00,,0821.4,5.00,0.00,29.1,27.6,00.0,38.0,31.0,13.7,0000.0,0012.95,0004.14,0002.59
2022-05-17 00:28:00,,0821.4,5.01,0.00,29.1,27.8,00.0,38.0,31.0,13.7,0000.0,0012.74,0004.26,0002.58
2022-05-17 00:29:00,,0821.4,5.00,0.00,29.2,28.0,00.0,38.0,31.1,13.8,0000.0,0013.63,0004.42,0002.58
2022-05-17 00:30:00,,0821.4,4.99,0.00,29.2,28.2,00.0,38.1,31.2,13.7,0000.0,0013.59,0004.31,0002.56
2022-05-17 00:31:00,,0821.6,5.00,0.00,29.2,28.3,00.0,38.1,31.2,13.7,0000.0,0012.98,0004.24,0002.53
2022-05-17 00:32:00,,0821.7,4.99,0.00,29.3,28.3,00.0,38.1,31.2,13.6,0000.0,0012.79,0004.23,0002.52
2022-05-17 00:33:00,,0821.8,5.02,0.00,29.3,26.7,00.0,38.1,31.0,13.7,0000.0,0012.83,0004.22,0002.54
2022-05-17 00:34:00,,0821.8,5.00,0.00,29.1,24.7,00.0,38.1,30.6,14.0,0000.0,0012.64,0004.20,0002.53
2022-05-17 00:35:00,,0821.9,5.00,0.00,29.0,24.9,00.0,38.0,30.5,14.3,0000.0,0012.64,0004.19,0002.52
2022-05-17 00:36:00,,0821.8,5.00,0.00,29.0,25.3,00.0,38.0,30.5,14.8,0000.0,0012.94,0004.24,0002.51
2022-05-17 00:37:00,,0821.8,5.00,0.00,28.9,25.8,00.0,38.0,30.5,14.9,0000.0,0013.05,0004.28,0002.53
2022-05-17 00:38:00,,0821.8,5.00,0.00,28.9,26.3,00.0,38.0,30.6,15.0,0000.0,0012.67,0004.27,0002.56
2022-05-17 00:39:00,,0821.8,4.99,0.00,28.9,26.7,00.0,38.0,30.8,14.7,0000.0,0012.24,0004.19,0002.55
2022-05-17 00:40:00,,0821.8,5.00,0.00,29.0,27.0,00.0,38.0,30.8,14.7,0000.0,0011.67,0004.04,0002.59
2022-05-17 00:41:00,,0821.8,5.01,0.00,29.0,27.3,00.0,38.0,30.9,14.7,0000.0,0012.32,0003.99,0002.65
2022-05-17 00:42:00,,0821.8,5.00,0.00,29.0,27.6,00.0,38.0,30.9,15.0,0000.0,0012.74,0004.06,0002.74
2022-05-17 00:43:00,,0821.8,5.00,0.00,29.1,27.8,00.0,38.0,31.0,15.2,0000.0,0013.49,0004.10,0002.82
2022-05-17 00:44:00,,0821.8,5.00,0.00,29.1,28.0,00.0,38.0,31.1,15.1,0000.0,0014.16,0004.14,0002.92
2022-05-17 00:45:00,,0821.8,5.00,0.00,29.2,28.1,00.0,38.1,31.1,14.8,0000.0,0014.71,0004.24,0003.00
2022-05-17 00:46:00,,0821.9,5.00,0.00,29.2,28.3,00.0,38.1,31.2,14.9,0000.0,0014.59,0004.33,0003.11
2022-05-17 00:47:00,,0821.8,5.00,0.00,29.3,28.4,00.0,38.1,31.2,14.9,0000.0,0014.26,0004.36,0003.17
2022-05-17 00:48:00,,0821.8,4.99,0.00,29.3,28.4,00.0,38.1,31.2,14.7,0000.0,0014.80,0004.38,0003.22
2022-05-17 00:49:00,,0821.9,5.00,0.00,29.3,26.7,00.0,38.1,31.0,14.8,0000.0,0015.87,0004.47,0003.26
2022-05-17 00:50:00,,0821.8,4.99,0.00,29.2,25.7,00.0,38.1,30.8,14.9,0000.0,0016.00,0004.53,0003.31
2022-05-17 00:51:00,,0821.8,5.00,0.00,29.1,26.0,00.0,38.1,30.7,14.9,0000.0,0015.39,0004.56,0003.35
2022-05-17 00:52:00,,0821.8,5.00,0.00,29.1,26.3,00.0,38.1,30.7,14.9,0000.0,0013.96,0004.57,0003.38
2022-05-17 00:53:00,,0821.9,5.00,0.00,29.1,26.7,00.0,38.1,30.8,15.0,0000.0,0013.20,0004.58,0003.40
2022-05-17 00:54:00,,0821.8,5.00,0.00,29.1,27.0,00.0,38.1,30.9,15.2,0000.0,0012.69,0004.57,0003.43
2022-05-17 00:55:00,,0821.8,5.00,0.00,29.1,27.3,00.0,38.1,30.9,15.2,0000.0,0012.68,0004.55,0003.44
2022-05-17 00:56:00,,0821.8,5.00,0.00,29.2,27.6,00.0,38.1,31.0,15.0,0000.0,0012.44,0004.53,0003.45
2022-05-17 00:57:00,,0821.8,5.00,0.00,29.2,27.8,00.0,38.1,31.1,14.6,0000.0,0012.39,0004.49,0003.44
2022-05-17 00:58:00,,0821.8,5.00,0.00,29.2,28.0,00.0,38.1,31.1,14.5,0000.0,0012.87,0004.50,0003.44
2022-05-17 00:59:00,,0821.8,5.01,0.00,29.3,28.1,00.0,38.2,31.1,14.8,0000.0,0012.92,0004.54,0003.44
